Tracking 35280 objects as of 7-Sep-2026
HD Live streaming from Space Station
objects crossing your sky now

COSMOS 699 DEB


COSMOS 699 DEB is no longer on orbit


NORAD ID: 8057
Int'l Code: 1974-103AH
Launch date: December 24, 1974
Source: Commonwealth of Independent States (former USSR) (CIS)
Launch site: TYURATAM MISSILE AND SPACE COMPLEX (TTMTR)
Decay date: 1978-11-21

Note: This is SATELLITE DEBRIS
Your satellite tracking list
Your tracking list is empty




NASA's NSSDC Master Catalog

Two Line Element Set (TLE):
1 08057U 74103 AH 78317.86551384  .01379946 +00000-0 +00000-0 0  9990
2 08057 064.5984 078.5233 0018458 079.6874 281.6044 15.82356670214468
Source of the keplerian elements: AFSPC